Home   Weather   Backnang   Past weeks

Flag for Germany Past Weather in Backnang, Baden-Württemberg, Germany — Yesterday and Last 2 Weeks

Now
59 °F

Clear.


Feels Like: 59 °F
Forecast: 55 / 69 °F
Wind: 2 mph from North

Location: Stuttgart-Echterdingen

Current Time: Sep 30, 2016 at 2:00:23 AM

Latest Report: Sep 30, 2016 at 1:20 AM


Visibility: 10 mi

Pressure: 30.07 "Hg

Humidity: 77%

Dew Point: 52 °F

Location of BacknangLocation

Past Weather in Backnang — Graph

°F

Backnang Temperature Yesterday

Maximum temperature yesterday: 77 °F (at 2:50 PM)
Minimum temperature yesterday: 50 °F (at 7:20 AM)
Average temperature yesterday: 64 °F

High & Low Weather Summary for the Past Weeks

 TemperatureHumidityPressure
High79 °F (Sep 15, 12:20 PM)100% (Sep 18, 9:20 AM)30.42 "Hg (Sep 18, 9:20 AM)
Low41 °F (Sep 22, 5:50 AM)36% (Sep 29, 2:20 PM)29.83 "Hg (Sep 15, 3:20 AM)
Average59 °F77%30.12 "Hg
* Reported Sep 15 12:20 AM — Sep 30 12:50 AM, Backnang, Weather by CustomWeather, © 2016

Note: Actual official high and low records may vary slightly from our data, if they occured in-between our weather recording intervals... More about our weather records

Advertising

Backnang Weather History for the Previous 24 Hours

Scroll right to see more
 ConditionsComfort  
Time TempWeatherWind HumidityBarometerVisibility
12:50 AM
Fri, Sep 30
59 °FPassing clouds.3 mph77%30.07 "HgN/A
12:20 AM63 °FPassing clouds.5 mph68%30.07 "HgN/A
11:50 PM
Thu, Sep 29
63 °FPassing clouds.5 mph68%30.09 "HgN/A
11:20 PM63 °FPassing clouds.3 mph56%30.09 "HgN/A
10:50 PM63 °FPassing clouds.6 mph56%30.07 "HgN/A
10:20 PM64 °FPassing clouds.3 mph60%30.07 "HgN/A
9:50 PM66 °FPassing clouds.3 mph52%30.07 "HgN/A
9:20 PM66 °FPassing clouds.6 mph52%30.07 "HgN/A
8:50 PM68 °FPassing clouds.6 mph49%30.07 "HgN/A
8:20 PM68 °FPassing clouds.5 mph46%30.07 "HgN/A
7:50 PM70 °FPassing clouds.5 mph46%30.07 "HgN/A
7:20 PM72 °FPassing clouds.8 mph47%30.07 "HgN/A
6:50 PM72 °FPassing clouds.7 mph41%30.07 "HgN/A
6:20 PM73 °FPassing clouds.8 mph47%30.07 "HgN/A
5:50 PM75 °FPassing clouds.10 mph41%30.07 "HgN/A
5:20 PM75 °FPassing clouds.9 mph44%30.09 "HgN/A
4:50 PM75 °FPassing clouds.8 mph39%30.09 "HgN/A
4:20 PM75 °FPassing clouds.9 mph44%30.09 "HgN/A
3:50 PM77 °FSunny.8 mph42%30.09 "Hg10 mi
3:20 PM77 °FPassing clouds.10 mph39%30.12 "HgN/A
2:50 PM77 °FPassing clouds.10 mph36%30.12 "HgN/A
2:20 PM75 °FPassing clouds.10 mph36%30.15 "HgN/A
1:50 PM73 °FPassing clouds.9 mph44%30.15 "HgN/A
1:20 PM73 °FPassing clouds.8 mph44%30.18 "HgN/A
12:50 PM72 °FPassing clouds.9 mph47%30.18 "HgN/A
12:20 PM72 °FPassing clouds.8 mph50%30.21 "HgN/A
11:50 AM70 °FPassing clouds.8 mph53%30.21 "HgN/A
11:20 AM70 °FPassing clouds.8 mph53%30.24 "HgN/A
10:50 AM68 °FPassing clouds.8 mph56%30.24 "HgN/A
10:20 AM66 °FSunny.2 mph60%30.24 "Hg10 mi
9:50 AM63 °FSunny.1 mph64%30.27 "Hg10 mi
9:20 AM59 °FSunny.1 mph68%30.27 "Hg10 mi
8:50 AM57 °FSunny.1 mph72%30.27 "Hg10 mi
8:20 AM54 °FSunny.1 mph77%30.27 "Hg10 mi
7:50 AM50 °FSunny.1 mph82%30.27 "Hg10 mi
7:20 AM50 °FSunny.1 mph94%30.27 "Hg10 mi
6:50 AM52 °FClear.2 mph77%30.27 "Hg10 mi
6:20 AM54 °FClear.1 mph77%30.27 "Hg10 mi
5:50 AM55 °FClear.2 mph72%30.27 "Hg10 mi
5:20 AM54 °FClear.No wind88%30.27 "Hg10 mi
4:50 AM55 °FClear.1 mph77%30.30 "Hg10 mi
4:20 AM55 °FClear.1 mph82%30.30 "Hg10 mi
3:50 AM55 °FClear.1 mph82%30.33 "Hg10 mi
3:20 AM55 °FPassing clouds.3 mph82%30.33 "HgN/A
2:50 AM57 °FClear.1 mph67%30.33 "Hg10 mi
2:20 AM57 °FClear.2 mph72%30.33 "Hg10 mi
Weather by CustomWeather, © 2016

See weather overviewHow to use our weather pages